Wind_Speed
87 84 79 74 74 68 63 63 64 63 59 61 60 62 61 59 61 60 54 53 55 57 58 54 50 48 54 58 59 60 64 72 72 75 77 81 86 86 84 88 93 93 99 99
92 88 85 84 77 73 70 68 69 67 65 66 68 66 65 65 63 54 52 55 55 56 55 54 50 52 56 58 61 65 71 73 74 75 81 86 87 87 89 94 97 98 100 102
92 92 88 84 79 81 75 72 70 68 69 68 70 70 71 68 55 54 54 55 55 56 54 52 54 57 59 60 66 68 73 79 77 85 86 90 88 90 97 98 100 102 104 106
93 91 87 85 90 83 78 75 72 69 73 72 70 65 60 59 59 58 57 58 58 56 55 55 60 63 67 70 73 76 78 78 86 87 89 89 94 98 98 101 104 106 106 105
92 88 86 86 82 84 81 78 77 71 72 67 60 61 55 57 61 61 61 60 58 56 59 63 65 64 68 73 74 75 79 84 83 86 89 95 98 99 104 105 106 106 105 105
85 88 85 76 82 84 77 73 71 70 63 57 55 56 59 62 64 64 62 60 58 59 64 66 69 69 71 71 78 82 80 83 88 91 94 97 100 103 108 108 106 106 107 106
63 68 62 57 58 53 57 54 61 54 48 51 53 60 64 65 65 60 60 62 62 65 67 71 74 76 79 81 83 85 89 91 92 96 100 101 103 104 106 108 109 111 110 107
60 62 55 55 54 47 53 49 49 48 53 53 54 61 64 63 63 61 61 63 68 67 70 74 77 80 83 84 85 86 90 93 97 101 102 104 105 105 107 109 114 113 109 106
52 59 63 56 53 51 51 51 49 53 58 61 61 62 62 64 65 65 65 67 69 69 70 72 75 77 82 85 90 92 96 100 103 107 108 107 107 111 111 112 111 114 110 101
60 53 48 49 51 52 50 52 55 59 62 66 64 67 66 65 68 70 73 75 76 75 76 82 85 86 88 92 97 97 99 102 103 104 106 105 111 112 114 115 112 107 100 97
59 50 48 47 50 55 60 62 60 64 65 67 68 70 73 76 75 77 76 77 80 83 88 91 92 93 91 95 99 102 105 97 102 101 100 102 105 110 106 105 101 97 95 92
51 54 50 52 55 57 61 66 70 66 67 67 68 66 69 75 79 82 81 83 84 85 91 93 94 96 100 102 105 101 96 95 107 107 107 104 100 101 105 101 95 90 88 82
48 49 55 55 52 53 59 60 66 71 69 71 73 74 77 77 80 84 90 88 94 96 97 97 98 102 102 99 97 95 93 105 112 117 106 100 100 99 95 92 90 84 79 76
60 57 56 57 61 62 62 65 71 74 73 74 75 78 81 85 90 94 98 101 102 103 103 98 97 97 95 94 93 101 109 114 115 101 97 97 96 90 87 83 79 76 73 69
76 61 65 70 68 69 72 75 73 73 74 79 83 88 90 94 96 97 98 100 96 89 89 95 98 102 101 107 106 105 108 100 91 91 93 91 87 84 80 75 71 68 64 60
71 68 72 73 76 79 79 84 83 84 88 89 93 86 92 92 91 95 95 94 91 92 97 103 109 111 114 110 113 114 110 97 93 89 84 82 78 75 71 66 62 59 51 45
73 74 78 77 79 82 85 85 87 88 92 91 87 89 88 92 97 100 97 97 100 102 106 109 111 117 119 118 118 111 98 93 88 84 81 77 72 66 61 56 50 44 39 34
76 80 78 83 87 89 91 90 91 96 96 93 94 95 97 98 101 103 102 105 105 109 117 116 121 118 121 115 104 100 91 86 81 78 74 67 61 56 50 42 37 34 30 25
82 86 88 88 89 96 99 102 103 108 104 97 98 100 100 104 104 105 108 110 113 117 120 125 123 119 112 103 96 90 82 78 75 68 61 56 51 44 37 32 30 27 23 20
88 88 90 90 94 96 97 101 107 106 105 104 103 103 106 110 108 111 117 120 120 123 123 121 117 111 100 95 86 78 75 71 64 58 52 47 39 33 29 25 23 21 19 18
97 95 93 95 101 104 105 108 110 109 108 104 105 109 114 114 115 120 121 123 124 124 119 113 105 96 89 81 75 70 66 60 54 48 41 35 30 27 22 20 19 19 19 17
105 104 104 101 103 108 111 113 111 109 108 109 112 115 118 120 121 124 123 123 122 116 114 104 93 85 77 69 64 60 54 50 44 37 32 28 26 22 19 19 18 18 18 16
105 104 105 107 108 110 114 114 114 112 113 114 117 121 121 125 127 127 121 117 111 107 100 88 80 72 65 59 56 50 45 40 36 31 27 24 22 20 19 19 19 18 17 17
104 103 105 106 108 113 115 114 114 116 119 121 123 123 124 125 125 121 115 111 106 95 84 76 68 61 56 51 48 43 38 35 30 27 24 22 21 21 21 19 19 19 19 21
108 109 111 113 116 115 114 117 121 123 125 127 126 126 124 121 116 112 105 98 91 82 73 67 59 54 49 46 43 38 35 31 28 24 23 22 21 22 20 20 21 21 22 25
114 115 115 117 120 121 120 121 124 126 127 126 124 122 116 110 106 98 91 87 79 74 69 61 55 50 47 46 40 34 31 29 27 24 24 23 21 21 21 22 23 24 26 27
119 114 112 113 115 117 121 124 125 124 125 121 116 108 106 99 92 86 84 80 75 68 60 54 51 47 43 41 35 31 30 29 26 24 23 22 21 21 22 23 22 25 26 28
Wind_Direction
260 263 265 268 271 271 272 276 282 282 286 289 292 297 299 299 295 295 292 283 286 288 293 294 295 296 300 304 307 309 312 311 315 316 315 318 319 321 319 320 322 323 324 326
260 262 266 268 271 273 276 276 279 282 285 289 296 299 299 297 298 289 281 283 287 290 293 293 293 292 297 302 305 306 307 311 311 312 314 317 318 317 316 319 319 320 322 324
261 263 265 268 271 271 274 277 279 282 285 290 293 295 297 298 286 280 282 282 284 289 290 286 288 295 300 298 300 302 305 307 309 312 313 314 314 314 316 317 318 319 320 322
262 265 268 270 271 275 276 278 282 286 289 291 293 295 295 286 279 280 285 286 285 285 283 283 292 295 295 300 302 303 306 307 308 310 311 311 314 316 316 317 317 318 319 320
264 266 269 274 275 276 278 280 281 285 288 290 292 293 283 275 274 277 283 286 287 292 293 295 295 295 294 297 299 303 305 307 307 308 311 313 314 316 316 316 316 316 317 316
261 263 266 265 271 276 278 283 285 285 287 285 287 275 271 274 275 276 280 286 287 290 290 290 292 294 298 300 299 302 304 304 305 308 311 313 314 313 313 314 314 315 315 315
252 257 264 264 266 272 279 269 283 283 266 268 271 270 271 272 277 281 282 282 282 286 291 297 297 295 296 298 298 298 300 301 303 305 309 310 311 312 312 312 312 312 312 312
251 252 251 263 264 265 270 277 273 269 261 263 265 264 267 273 277 278 280 282 285 288 289 290 292 293 293 293 295 297 300 302 305 307 308 309 310 311 309 309 309 309 309 311
232 240 253 262 260 263 265 270 265 256 258 260 264 264 266 268 271 275 276 280 282 285 286 287 288 289 292 294 298 301 303 305 306 306 306 306 308 309 308 307 308 309 310 311
245 252 253 250 255 260 258 256 252 254 260 259 263 266 266 270 269 271 273 276 280 281 283 286 290 292 294 296 300 303 305 307 309 309 307 307 308 308 310 308 307 306 308 308
245 255 252 245 245 244 245 252 250 254 260 264 266 267 266 272 274 275 276 278 281 285 286 287 287 288 290 292 296 297 298 301 306 307 307 305 305 306 304 303 303 305 304 305
254 242 242 245 243 242 245 249 252 257 261 263 265 264 267 270 273 277 280 282 284 288 287 287 288 291 289 291 294 298 300 305 310 309 306 303 303 301 300 301 302 302 302 301
236 241 240 246 249 247 247 249 255 257 259 263 265 267 270 272 274 275 282 282 284 289 289 290 291 292 293 295 297 300 305 312 311 309 304 299 297 297 298 300 301 301 300 300
237 239 241 246 250 253 254 256 256 256 260 262 264 265 269 275 277 281 283 285 286 288 289 291 293 294 299 302 306 311 311 312 311 305 296 294 296 297 298 298 298 299 299 299
239 243 240 244 247 249 251 253 255 257 262 268 268 273 275 280 281 282 283 289 294 293 293 297 303 308 312 312 313 313 313 308 298 293 294 296 298 298 298 297 297 298 298 298
242 246 247 249 247 253 256 257 259 262 267 273 278 280 279 282 283 284 289 293 297 296 297 302 305 309 311 313 315 316 313 305 300 299 300 300 298 298 298 298 298 299 298 297
249 246 248 249 249 251 253 254 259 266 274 279 279 281 284 283 285 292 293 296 300 303 305 304 307 309 312 313 316 313 307 307 306 304 303 301 299 298 298 299 298 298 296 292
250 251 247 254 254 255 257 260 260 278 285 284 285 287 288 290 293 297 298 299 303 302 304 305 307 311 311 313 312 309 308 305 303 303 303 302 301 300 299 298 297 294 290 282
256 254 255 257 256 255 256 258 264 277 284 285 288 289 288 290 293 296 297 299 300 301 306 307 309 311 314 312 309 308 305 304 305 305 303 301 302 299 297 296 294 288 278 274
251 253 253 259 263 265 266 269 274 280 282 284 287 288 289 293 295 293 296 299 303 304 307 308 310 312 310 310 308 305 304 305 305 303 300 301 299 296 294 293 286 278 272 257
254 254 256 261 262 265 266 270 275 280 283 287 289 288 289 293 294 295 297 302 304 306 307 309 310 310 310 306 304 303 303 303 301 300 299 298 296 293 290 283 278 269 252 243
253 256 258 260 261 264 270 276 281 284 285 286 287 288 290 293 295 297 300 303 303 306 308 309 311 310 307 304 304 302 301 299 298 298 297 295 292 289 282 278 267 249 237 246
254 257 260 264 267 271 274 277 279 282 286 287 289 290 292 295 298 298 300 303 305 307 309 310 308 306 304 303 302 301 299 296 295 294 291 291 287 282 279 269 255 233 238 251
255 263 267 271 273 275 279 283 284 285 285 285 287 290 292 294 297 298 301 304 306 308 308 307 307 306 303 303 303 300 296 294 292 289 286 283 279 280 275 260 235 233 243 256
259 263 266 269 272 274 275 278 280 281 283 286 288 291 293 296 298 300 303 304 307 307 307 308 307 306 306 306 304 299 294 291 285 280 280 277 277 278 265 247 233 235 250 265
258 260 264 268 270 272 275 277 279 281 284 286 288 291 295 298 299 301 304 304 306 306 305 305 305 306 305 305 301 295 291 286 280 279 276 274 278 269 258 236 237 245 261 274
262 265 267 269 271 273 276 278 280 282 283 286 289 293 294 296 299 303 304 303 302 301 301 302 303 302 302 300 295 291 288 280 276 277 275 278 275 263 244 233 243 252 267 284
Height
10687 10693 10699 10703 10705 10712 10715 10716 10713 10712 10715 10712 10716 10713 10711 10709 10702 10697 10694 10690 10686 10682 10673 10672 10667 10662 10655 10648 10642 10636 10629 10623 10615 10606 10597 10587 10578 10568 10559 10549 10539 10528 10517 10506
10668 10676 10684 10688 10691 10696 10700 10698 10699 10700 10697 10696 10695 10696 10690 10689 10687 10683 10680 10677 10674 10668 10664 10658 10654 10650 10646 10640 10633 10626 10619 10611 10603 10594 10584 10574 10565 10555 10544 10533 10523 10513 10501 10489
10651 10655 10667 10678 10672 10676 10684 10686 10683 10684 10680 10684 10682 10678 10673 10669 10668 10666 10667 10665 10663 10660 10651 10646 10642 10638 10632 10626 10620 10613 10606 10598 10589 10579 10569 10560 10550 10539 10528 10516 10506 10495 10485 10472
10633 10640 10653 10653 10649 10662 10665 10666 10667 10670 10663 10665 10666 10661 10658 10653 10650 10649 10648 10647 10646 10643 10641 10636 10628 10622 10617 10610 10604 10598 10592 10583 10573 10563 10552 10542 10532 10522 10511 10500 10489 10478 10468 10456
10615 10623 10633 10634 10633 10636 10643 10647 10651 10656 10649 10646 10646 10646 10644 10640 10638 10636 10634 10630 10626 10625 10620 10616 10613 10607 10601 10596 10589 10582 10576 10566 10555 10544 10535 10525 10514 10503 10492 10482 10471 10460 10449 10440
10599 10609 10617 10610 10614 10621 10625 10630 10630 10634 10632 10629 10629 10629 10624 10623 10623 10622 10621 10618 10613 10609 10605 10601 10595 10592 10588 10581 10573 10566 10557 10549 10538 10528 10517 10507 10496 10485 10474 10462 10451 10441 10431 10420
10580 10586 10598 10595 10597 10601 10615 10607 10618 10616 10617 10616 10615 10612 10609 10608 10605 10604 10602 10601 10600 10596 10591 10586 10580 10575 10571 10564 10556 10550 10540 10532 10522 10512 10500 10490 10478 10466 10454 10441 10429 10418 10412 10401
10566 10576 10579 10577 10579 10591 10589 10595 10598 10599 10601 10601 10600 10597 10596 10595 10592 10591 10589 10586 10585 10582 10577 10571 10566 10562 10556 10548 10541 10532 10524 10514 10506 10495 10483 10470 10457 10443 10432 10420 10404 10397 10389 10379
10548 10557 10558 10567 10569 10573 10575 10578 10582 10585 10584 10585 10585 10584 10583 10582 10579 10575 10573 10571 10569 10566 10564 10559 10552 10546 10539 10531 10526 10517 10506 10495 10486 10475 10462 10448 10435 10420 10409 10396 10386 10368 10357 10354
10534 10540 10545 10551 10554 10556 10560 10564 10567 10570 10570 10569 10570 10568 10567 10566 10565 10563 10561 10559 10556 10553 10549 10542 10534 10527 10518 10511 10503 10495 10485 10469 10457 10446 10434 10425 10410 10402 10381 10368 10359 10349 10342 10332
10520 10526 10530 10537 10539 10542 10546 10549 10553 10555 10554 10552 10554 10555 10552 10550 10546 10544 10543 10542 10538 10536 10532 10527 10520 10513 10505 10497 10490 10483 10473 10460 10444 10427 10414 10403 10391 10374 10363 10352 10344 10333 10321 10312
10510 10509 10515 10519 10525 10529 10532 10534 10536 10538 10539 10540 10541 10539 10538 10537 10531 10526 10525 10522 10519 10514 10510 10505 10500 10492 10483 10476 10470 10464 10453 10438 10420 10404 10388 10377 10366 10351 10338 10327 10319 10309 10298 10290
10493 10497 10502 10509 10514 10517 10518 10520 10523 10523 10523 10521 10520 10520 10519 10518 10514 10509 10505 10502 10497 10492 10486 10480 10475 10467 10461 10454 10447 10436 10425 10411 10395 10377 10362 10348 10336 10326 10315 10304 10293 10285 10277 10269
10480 10485 10490 10495 10497 10500 10503 10505 10505 10504 10505 10505 10504 10501 10498 10497 10493 10487 10482 10477 10472 10466 10459 10455 10449 10441 10436 10427 10416 10405 10394 10379 10364 10347 10333 10318 10310 10302 10291 10280 10270 10262 10255 10249
10465 10469 10474 10477 10483 10486 10487 10486 10486 10488 10488 10488 10486 10484 10480 10476 10471 10467 10463 10457 10450 10441 10437 10431 10423 10411 10403 10393 10383 10370 10352 10339 10329 10318 10303 10293 10283 10273 10263 10254 10247 10240 10234 10229
10449 10455 10459 10464 10469 10469 10468 10467 10468 10469 10470 10470 10470 10465 10461 10456 10451 10447 10441 10434 10426 10418 10410 10403 10392 10381 10369 10358 10348 10333 10318 10302 10290 10284 10276 10267 10256 10246 10238 10231 10224 10219 10215 10212
10437 10440 10444 10447 10449 10449 10448 10449 10453 10454 10454 10451 10446 10445 10442 10437 10431 10425 10417 10410 10400 10390 10384 10378 10369 10356 10343 10329 10318 10305 10287 10272 10263 10255 10247 10239 10231 10224 10217 10211 10206 10203 10200 10198
10420 10424 10426 10431 10432 10433 10433 10433 10433 10433 10428 10425 10425 10422 10417 10410 10404 10397 10389 10381 10374 10364 10355 10346 10337 10327 10317 10305 10290 10273 10261 10252 10243 10234 10225 10217 10211 10204 10199 10195 10192 10190 10189 10188
10404 10407 10410 10412 10415 10415 10416 10415 10413 10411 10408 10407 10404 10398 10392 10387 10378 10372 10363 10355 10350 10343 10329 10319 10307 10297 10288 10275 10261 10251 10240 10229 10221 10213 10206 10200 10194 10189 10185 10182 10181 10180 10179 10179
10387 10390 10391 10392 10392 10393 10395 10395 10393 10391 10388 10386 10382 10376 10369 10363 10356 10346 10338 10329 10324 10315 10307 10295 10284 10273 10263 10248 10238 10229 10218 10209 10202 10196 10191 10185 10180 10177 10174 10172 10172 10172 10172 10173
10368 10372 10373 10375 10376 10374 10374 10372 10372 10371 10367 10365 10359 10352 10345 10337 10329 10319 10312 10307 10297 10288 10279 10268 10261 10249 10238 10225 10216 10207 10198 10191 10186 10181 10177 10173 10169 10167 10165 10164 10165 10165 10166 10168
10352 10355 10356 10356 10355 10354 10353 10353 10354 10351 10347 10343 10336 10328 10319 10309 10302 10291 10287 10283 10273 10263 10254 10244 10234 10224 10215 10206 10196 10188 10182 10176 10172 10168 10165 10162 10159 10158 10157 10157 10158 10158 10160 10161
10335 10337 10337 10338 10340 10338 10334 10335 10332 10329 10324 10318 10310 10299 10291 10283 10275 10271 10263 10258 10249 10240 10229 10220 10212 10203 10193 10187 10178 10172 10167 10163 10159 10156 10153 10151 10151 10150 10150 10150 10151 10153 10154 10154
10318 10319 10318 10317 10316 10315 10314 10313 10309 10303 10297 10291 10285 10276 10267 10261 10256 10249 10243 10234 10226 10217 10207 10200 10191 10182 10174 10168 10163 10157 10153 10150 10147 10145 10143 10143 10142 10142 10143 10143 10144 10146 10147 10147
10300 10303 10304 10305 10302 10300 10297 10295 10287 10278 10271 10264 10257 10248 10242 10239 10232 10227 10221 10211 10203 10195 10187 10180 10172 10165 10158 10153 10149 10145 10141 10139 10138 10136 10135 10135 10134 10134 10135 10136 10137 10139 10140 10139
10286 10288 10288 10287 10282 10278 10274 10269 10260 10254 10246 10237 10231 10224 10221 10216 10210 10204 10198 10189 10179 10173 10168 10161 10155 10150 10144 10140 10137 10133 10131 10130 10129 10127 10127 10127 10127 10127 10127 10129 10131 10132 10132 10131
10272 10273 10269 10263 10259 10256 10249 10242 10235 10229 10220 10214 10209 10208 10203 10194 10188 10183 10175 10166 10160 10155 10149 10143 10139 10135 10131 10128 10125 10123 10122 10121 10120 10119 10119 10119 10119 10120 10121 10123 10125 10125 10125 10124